Flag for Russia Weather past 2 weeks in Bryansk, Russia

Now
43 °F

Clear.


Feels Like: 43 °F
Forecast: 37 / 56 °F
Wind: No wind

Location: Brjansk


UV Index: 3 (Moderate)

Visibility: 10 mi


Pressure: 30.18 "Hg

Humidity: 93%

Dew point: 41 °F

Location of BryanskLocation

Historic Weather in Bryansk

°F

Bryansk temperature yesterday

Maximum temperature yesterday: 50 °F (at 4:00 PM)
Minimum temperature yesterday: 41 °F (at 5:00 AM)
Average temperature yesterday: 46 °F

Past Weeks' High & Low Weather Summary

 TemperatureHumidityPressure
High55 °F (Apr 6, 4:00 PM)100% (Apr 9, 7:00 AM)30.42 "Hg (Apr 9, 7:00 AM)
Low21 °F (Apr 2, 7:00 AM)19% (Apr 6, 3:00 PM)29.62 "Hg (Apr 4, 7:00 AM)
Average41 °F63%29.96 "Hg
* Reported Apr 1 10:00 PM — Apr 16 10:00 PM, Bryansk, Weather by CustomWeather, © 2014

Note: Actual official high and low records may vary slightly from our data, if they occured in-between our weather recording intervals... More about our weather records

Advertising

Historic Weather Conditions — Data for Previous 24 hours

 ConditionsComfort  
Time TempWeatherWind HumidityBarometerVisibility
10:00 PM
Apr 16
45 °FClear.No wind87%30.15 "Hg10 mi
9:00 PM46 °FSunny.No wind87%30.15 "Hg10 mi
8:00 PM48 °FBroken clouds.1 mph82%30.12 "HgN/A
7:00 PM48 °FPartly sunny.No wind76%30.12 "HgN/A
6:00 PM48 °FPartly sunny.No wind76%30.09 "HgN/A
5:00 PM48 °FPartly sunny.1 mph82%30.09 "HgN/A
4:00 PM46 °FOvercast.3 mph87%30.09 "HgN/A
3:00 PM46 °FSprinkles. Mostly cloudy.3 mph87%30.07 "HgN/A
2:00 PM45 °FSprinkles. Mostly cloudy.8 mph93%30.07 "HgN/A
1:00 PM45 °FSprinkles. Mostly cloudy.6 mph87%30.04 "HgN/A
12:00 PM43 °FSprinkles. Mostly cloudy.6 mph93%30.04 "Hg5 mi
11:00 AM45 °FSprinkles. Mostly cloudy.6 mph93%30.01 "Hg4 mi
10:00 AM43 °FSprinkles. Overcast.1 mph100%29.98 "Hg4 mi
9:00 AM43 °FLight rain. Fog.3 mph100%29.98 "Hg3 mi
8:00 AM43 °FLight rain. Fog.1 mph100%29.95 "Hg3 mi
7:00 AM43 °FLight rain. Overcast.1 mph93%29.95 "Hg4 mi
6:00 AM43 °FLight rain. Overcast.3 mph100%29.92 "Hg6 mi
5:00 AM43 °FLight rain. Overcast.1 mph100%29.92 "Hg6 mi
3:00 AM43 °FLight rain. Overcast.3 mph100%29.89 "Hg5 mi
2:00 AM45 °FLight rain. Mostly cloudy.3 mph100%29.89 "Hg4 mi
1:00 AM46 °FLight rain. Fog.8 mph93%29.89 "Hg2 mi
12:00 AM46 °FLight rain. Fog.No wind93%29.86 "Hg2 mi
11:00 PM
Apr 15
48 °FOvercast.6 mph87%29.89 "Hg6 mi
Weather by CustomWeather, © 2014

See weather overview